sat.trackr.live / text

‹ back to catalog

ONEWEB-0127

NORAD 47273 · 2020-100R

PAYLOAD ACTIVE UNKNOWN

§ Identity

Operator
Country
UK
Launch date
2020-12-18
Launch site
VOSTO
Launch vehicle
Mass (kg)
RCS (m²)

Purposes: comms

External: N2YO · Heavens-Above · Gunter

§ Orbital elements

Epoch: 2026-09-09T04:11:11.097600Z

Period
109.72 min
Inclination
87.8985°
Eccentricity
0.0001793
Mean motion
13.12442054 rev/d
Perigee alt
1,212.4 km
Apogee alt
1,215.1 km
Semi-major
7,591.9 km
B*
-8.1272e-4
RAAN
333.9883°
Arg perigee
97.3603°
Mean anomaly
262.7729°
Rev number
27,574

§ Raw data

ONEWEB-01271 47273U 20100R   26252.17443400 -.00000280  00000+0 -81272-3 0  99902 47273  87.8985 333.9883 0001793  97.3603 262.7729 13.12442054275741

JSON: /api/v1/satellites/47273 · /tle

For live sub-satellite position, see the globe view (requires WebGL).

§ Visibility from observer

Set your observer location to see the next 7 days of passes ≥ 10°. The values pass through the URL so the page stays shareable.

No JS? Fill the form by hand. The geolocation button needs JavaScript.